Location: Byszew
(52.1813°N, 19.2693°E)
Time: 12:57:35
(UTC+00:00)

MetOp-B - Pass Details

Date: 03 March 2021
Orbit: 819 x 821 km, 98.7° (Epoch: 13 April)

Event Time Altitude Azimuth Distance (km) Brightness Sun altitude
Exits shadow 19:08:27 66° 77° (ENE) 899 4.0 -25.2°
Maximum altitude 19:08:33 66° 69° (ENE) 898 4.1 -25.2°
Drops below altitude 10° 19:13:53 10° 349° (N) 2,432 7.0 -25.9°
Sets 19:16:15 0° 347° (NNW) 3,369 7.9 -26.2°
